Tracking 18980 objects as of 22-Feb-2018
HD Live streaming from Space Station
objects crossing your sky now

ZDPS 2B

Track ZDPS 2B now!
10-day predictions
ZDPS 2B is classified as:


NORAD ID: 40902
Int'l Code: 2015-049D
Perigee: 512.4 km
Apogee: 533.7 km
Inclination: 97.4 °
Period: 94.9 minutes
Semi major axis: 6894 km
RCS: Unknown
Launch date: September 19, 2015
Source: People's Republic of China (PRC)
Launch site: Taiyaun Space Center, China (TSC)
aabbcc
Your satellite tracking list
Your tracking list is empty




NASA's NSSDC Master Catalog

Two Line Element Set (TLE):
1 40902U 15049D   18053.39374814  .00000797  00000-0  44007-4 0  9992
2 40902  97.4489  59.7609 0015508  75.8218 284.4737 15.16670992134249
Source of the keplerian elements: AFSPC